Home > Weather > Hobart > Past weeks

Flag for Australia Past Weather in Hobart, Tasmania, Australia — Yesterday and Last 2 Weeks

Now
50 °F

Passing clouds.


Feels Like: 46 °F
Forecast: 43 / 54 °F
Wind: 12 mph from Northwest

Location: Hobart Airport

Current Time: Jul 28, 2016 at 10:28:53 PM

Latest Report: Jul 28, 2016 at 10:00 PM


Visibility: N/A

Pressure: 29.83 "Hg

Humidity: 67%

Dew Point: 39 °F

Location of HobartLocation

Past Weather in Hobart — Graph

°F

Hobart Temperature Yesterday

Maximum temperature yesterday: 52 °F (at 10:04 PM)
Minimum temperature yesterday: 39 °F (at 7:00 AM)
Average temperature yesterday: 46 °F

High & Low Weather Summary for the Past Weeks

 TemperatureHumidityPressure
High61 °F (Jul 16, 1:00 PM)93% (Jul 21, 7:30 AM)30.30 "Hg (Jul 21, 7:30 AM)
Low36 °F (Jul 24, 9:30 PM)41% (Jul 19, 3:30 PM)28.88 "Hg (Jul 22, 2:00 PM)
Average50 °F64%29.73 "Hg
* Reported Jul 13 9:00 PM — Jul 28 9:00 PM, Hobart, Weather by CustomWeather, © 2016

Note: Actual official high and low records may vary slightly from our data, if they occured in-between our weather recording intervals... More about our weather records

Advertising

Hobart Weather History for the Previous 24 Hours

Scroll right to see more
 ConditionsComfort  
Time TempWeatherWind HumidityBarometerVisibility
9:00 PM
Thu, Jul 28
50 °FPassing clouds.12 mph67%29.83 "HgN/A
8:30 PM52 °FPassing clouds.15 mph58%29.83 "HgN/A
8:00 PM52 °FPassing clouds.20 mph58%29.83 "HgN/A
7:00 PM54 °FPassing clouds.20 mph51%29.83 "HgN/A
6:30 PM52 °FPassing clouds.18 mph54%29.83 "HgN/A
6:00 PM54 °FPassing clouds.13 mph47%29.80 "HgN/A
5:30 PM54 °FPassing clouds.15 mph47%29.80 "HgN/A
5:00 PM54 °FPassing clouds.18 mph47%29.80 "HgN/A
4:30 PM54 °FPassing clouds.18 mph54%29.77 "HgN/A
4:00 PM55 °FScattered clouds.21 mph51%29.77 "HgN/A
3:30 PM57 °FScattered clouds.28 mph48%29.74 "HgN/A
3:00 PM57 °FScattered clouds.33 mph48%29.68 "HgN/A
2:30 PM57 °FScattered clouds.36 mph44%29.65 "HgN/A
2:00 PM57 °FScattered clouds.33 mph48%29.68 "HgN/A
1:30 PM57 °FScattered clouds.28 mph48%29.71 "HgN/A
1:00 PM57 °FScattered clouds.29 mph48%29.74 "HgN/A
12:00 PM59 °FPassing clouds.30 mph48%29.71 "HgN/A
11:48 AM59 °FPassing clouds.28 mph48%29.71 "HgN/A
11:30 AM59 °FPassing clouds.30 mph45%29.71 "HgN/A
11:00 AM59 °FPassing clouds.30 mph48%29.74 "HgN/A
10:30 AM57 °FPassing clouds.25 mph51%29.74 "HgN/A
10:00 AM57 °FPassing clouds.25 mph51%29.74 "HgN/A
9:00 AM55 °FScattered clouds.20 mph55%29.74 "HgN/A
8:30 AM54 °FScattered clouds.18 mph58%29.74 "HgN/A
8:00 AM54 °FScattered clouds.17 mph58%29.71 "HgN/A
7:49 AM54 °FScattered clouds.18 mph58%29.71 "HgN/A
7:00 AM52 °FScattered clouds.15 mph58%29.71 "HgN/A
6:30 AM52 °FScattered clouds.16 mph58%29.71 "HgN/A
6:00 AM52 °FPartly cloudy.15 mph54%29.71 "HgN/A
5:30 AM50 °FPassing clouds.14 mph62%29.71 "HgN/A
5:00 AM52 °FPartly cloudy.20 mph54%29.71 "HgN/A
4:30 AM50 °FPartly cloudy.15 mph58%29.74 "HgN/A
4:00 AM52 °FPassing clouds.16 mph50%29.74 "HgN/A
3:30 AM52 °FPassing clouds.20 mph54%29.74 "HgN/A
3:00 AM52 °FPassing clouds.17 mph54%29.74 "HgN/A
2:00 AM52 °FPassing clouds.16 mph50%29.74 "HgN/A
1:00 AM52 °FPassing clouds.17 mph50%29.71 "HgN/A
12:30 AM52 °FPassing clouds.20 mph50%29.71 "HgN/A
12:00 AM52 °FPassing clouds.21 mph50%29.71 "HgN/A
11:00 PM
Wed, Jul 27
52 °FPassing clouds.17 mph47%29.68 "HgN/A
10:04 PM52 °FPassing clouds.20 mph47%29.68 "HgN/A
Weather by CustomWeather, © 2016

See weather overviewHow to use our weather pages